Cozieni, Romania

9:28 AM EEST on October 19, 2017 (GMT +0300)
Cozieni

Weather History for 15420 - March, 2009

Change the Weather History Date:

Thursday, March 12, 2009

  Actual Average Record
Temperature  
Mean Temperature 40 °F -  
Max Temperature 54 °F 56 °F - ()
Min Temperature 27 °F 37 °F - ()
Degree Days  
Heating Degree Days 24    
Moisture  
Dew Point 34 °F    
Average Humidity 73    
Maximum Humidity 100    
Minimum Humidity 19    
Precipitation  
Precipitation 0.00 in 0.05 in - ()
Sea Level Pressure  
Sea Level Pressure 29.99 in    
Wind  
Wind Speed 3 mph ()    
Max Wind Speed 10 mph    
Max Gust Speed -    
Visibility 5.4 miles    
Events Rain    
T = Trace of Precipitation, MM = Missing Value Source: Averaged Metar Reports

Daily Weather History Graph

Daily Weather History Graph

Search for Another Location

Airport or City:

Trip Planner

Search our weather history database for the weather conditions in past years. The results will help you decide how hot, cold, wet, or windy it might be!

Date:

Astronomy

Mar. 12, 2009 Rise Set
Actual Time 6:33 AM EET 6:17 PM EET
Civil Twilight 6:04 AM EET 6:46 PM EET
Nautical Twilight 5:30 AM EET 7:20 PM EET
Astronomical Twilight 4:56 AM EET 7:54 PM EET
Moon 8:14 PM EET (3/12) 6:43 AM EET (3/12)
Length of Visible Light 12h 42m
Length of Day
11h 44m
Full, 98% of the Moon is Illuminated
Mar 12
Full
Mar 18
Last Quarter
Mar 26
New
Apr 2
First Quarter
Apr 9
Full

Hourly Weather History & Observations

Time (EET) Temp. Windchill Dew Point Humidity Pressure Visibility Wind Dir Wind Speed Gust Speed Precip Events Conditions
12:00 AM 33 °F - 32 °F 92% 30.01 in 6 mi North 2.2 mph - -   Partly Cloudy
12:00 AM 37.4 °F - 37.4 °F 100% 29.98 in - Variable 2.3 mph - N/A   Clear
12:30 AM 37.4 °F - 37.4 °F 100% 29.98 in - ENE 1.2 mph - N/A   Clear
1:00 AM 32 °F - 32 °F 98% 30.01 in 6 mi Calm Calm - -   Scattered Clouds
1:00 AM 35.6 °F - 35.6 °F 100% 29.98 in - ENE 2.3 mph - N/A   Clear
1:30 AM 35.6 °F - 35.6 °F 100% 29.98 in - NE 1.2 mph - N/A   Clear
2:00 AM 31 °F - 31 °F 100% 30.00 in 6 mi North 2.2 mph - -  
2:00 AM 35.6 °F - 35.6 °F 100% 29.98 in - Calm Calm - N/A   Clear
2:30 AM 35.6 °F - 35.6 °F 100% 29.98 in - Calm Calm - N/A   Clear
3:00 AM 30 °F - 30 °F 100% 30.00 in 6 mi North 2.2 mph - -  
3:00 AM 33.8 °F - 33.8 °F 100% 29.98 in 5.0 mi Calm Calm - N/A   Unknown
3:30 AM 33.8 °F - 33.8 °F 100% 29.98 in 5.0 mi Calm Calm - N/A   Unknown
4:00 AM 31 °F - 31 °F 100% 29.99 in 6 mi NNE 2.2 mph - -   Partly Cloudy
4:00 AM 33.8 °F - 33.8 °F 100% 29.98 in 5.0 mi Calm Calm - N/A   Unknown
4:30 AM 35.6 °F 32.8 °F 33.8 °F 93% 29.98 in 5.0 mi NW 3.5 mph - N/A   Unknown
5:00 AM 30 °F - 30 °F 100% 29.99 in 6 mi North 2.2 mph - -   Scattered Clouds
5:00 AM 33.8 °F - 33.8 °F 100% 29.98 in 5.0 mi Variable 1.2 mph - N/A   Unknown
5:30 AM 33.8 °F - 33.8 °F 100% 29.98 in 5.0 mi Variable 1.2 mph - N/A   Unknown
6:00 AM 29 °F - 29 °F 100% 30.00 in 6 mi North 2.2 mph - -   Partly Cloudy
6:00 AM 33.8 °F - 33.8 °F 100% 29.98 in 5.0 mi Calm Calm - N/A   Unknown
6:30 AM 32.0 °F - 32.0 °F 100% 29.98 in 3.1 mi WNW 1.2 mph - N/A   Mist
7:00 AM 28 °F - 28 °F 97% 30.01 in 2 mi NW 2.2 mph - -   Mist
7:00 AM 33.8 °F - 32.0 °F 93% 29.98 in 3.1 mi Calm Calm - N/A   Partly Cloudy
7:30 AM 35.6 °F - 35.6 °F 100% 30.01 in 3.7 mi Calm Calm - N/A   Partly Cloudy
8:00 AM 32 °F - 32 °F 100% 30.01 in 2 mi Calm Calm - -   Mist
8:00 AM 39.2 °F - 37.4 °F 93% 30.01 in 3.7 mi Calm Calm - N/A   Partly Cloudy
8:30 AM 41.0 °F - 39.2 °F 93% 30.01 in 5.0 mi Calm Calm - N/A   Unknown
9:00 AM 41 °F - 39 °F 90% 30.01 in 2 mi North 4.5 mph - -   Mist
9:00 AM 42.8 °F 41.1 °F 41.0 °F 93% 30.01 in - NE 3.5 mph - N/A   Clear
9:30 AM 44.6 °F 43.1 °F 41.0 °F 87% 30.01 in - NE 3.5 mph - N/A   Clear
10:00 AM 47 °F - 31 °F 42% 30.01 in 6 mi NNE 2.2 mph - -  
10:00 AM 48.2 °F - 39.2 °F 71% 30.01 in - East 3.5 mph - N/A   Clear
10:30 AM 50.0 °F - 37.4 °F 62% 30.01 in - East 3.5 mph - N/A   Clear
11:00 AM 51 °F - 28 °F 29% 30.02 in 6 mi SSE 4.5 mph - -  
11:00 AM 50.0 °F - 37.4 °F 62% 30.01 in - Variable 2.3 mph - N/A   Clear
11:30 AM 51.8 °F - 35.6 °F 54% 30.01 in 6.2 mi Variable 2.3 mph - N/A   Scattered Clouds
12:00 PM 52 °F - 27 °F 26% 30.02 in 6 mi SSE 4.5 mph - -   Partly Cloudy
12:00 PM 51.8 °F - 32.0 °F 47% 30.01 in 6.2 mi SSW 4.6 mph - N/A   Mostly Cloudy
12:30 PM 51.8 °F - 32.0 °F 47% 30.01 in 6.2 mi WNW 4.6 mph - N/A   Scattered Clouds
1:00 PM 52 °F - 25 °F 23% 30.01 in 6 mi West 4.5 mph - -   Mostly Cloudy
1:30 PM 51.8 °F - 32.0 °F 47% 29.98 in 6.2 mi NW 3.5 mph - N/A   Scattered Clouds
2:00 PM 50 °F - 24 °F 24% 30.01 in 6 mi NW 4.5 mph - -   Mostly Cloudy
2:30 PM 53.6 °F - 32.0 °F 44% 29.98 in 6.2 mi WSW 8.1 mph - N/A   Scattered Clouds
3:00 PM 52 °F - 25 °F 22% 29.98 in 6 mi WSW 6.7 mph - -   Mostly Cloudy
3:00 PM 55.4 °F - 32.0 °F 41% 29.95 in 6.2 mi West 4.6 mph - N/A   Scattered Clouds
3:30 PM 53.6 °F - 30.2 °F 41% 29.95 in 6.2 mi West 10.4 mph - N/A   Scattered Clouds
4:00 PM 54 °F - 24 °F 19% 29.97 in 6 mi West 8.9 mph - -   Mostly Cloudy
4:00 PM 53.6 °F - 32.0 °F 44% 29.95 in 6.2 mi WSW 10.4 mph - N/A   Scattered Clouds
4:30 PM 51.8 °F - 35.6 °F 54% 29.95 in 6.2 mi WSW 9.2 mph - N/A   Scattered Clouds
5:00 PM 51 °F - 27 °F 27% 29.98 in 6 mi WSW 8.9 mph - - Rain Light Rain Showers
5:00 PM 53.6 °F - 35.6 °F 51% 29.95 in 6.2 mi SSW 10.4 mph - N/A   Partly Cloudy
5:30 PM 51.8 °F - 32.0 °F 47% 29.95 in - WSW 9.2 mph - N/A   Clear
6:00 PM 50 °F - 25 °F 25% 29.98 in 6 mi WSW 8.9 mph - -   Scattered Clouds
6:00 PM 50.0 °F - 35.6 °F 58% 29.98 in - SSW 9.2 mph - N/A   Clear
6:30 PM 50.0 °F - 35.6 °F 58% 29.98 in - SW 8.1 mph - N/A   Clear
7:00 PM 47 °F - 27 °F 33% 29.99 in 6 mi SW 6.7 mph - -   Scattered Clouds
7:00 PM 48.2 °F - 37.4 °F 66% 29.98 in - SW 8.1 mph - N/A   Clear
7:30 PM 48.2 °F - 37.4 °F 66% 29.98 in - SW 5.8 mph - N/A   Clear
8:00 PM 44 °F - 29 °F 42% 30.00 in 6 mi WSW 2.2 mph - -   Partly Cloudy
8:00 PM 46.4 °F 44.3 °F 37.4 °F 71% 29.98 in - WSW 4.6 mph - N/A   Clear
8:30 PM 44.6 °F 42.2 °F 39.2 °F 81% 29.98 in - WSW 4.6 mph - N/A   Clear
9:00 PM 42 °F - 30 °F 51% 29.99 in 6 mi West 4.5 mph - -  
9:00 PM 44.6 °F 43.1 °F 39.2 °F 81% 29.98 in - WSW 3.5 mph - N/A   Clear
9:30 PM 42.8 °F 39.3 °F 41.0 °F 93% 29.98 in - WSW 5.8 mph - N/A   Clear
10:00 PM 39 °F - 31 °F 64% 30.00 in 6 mi West 2.2 mph - -   Clear
10:00 PM 41.0 °F 38.0 °F 41.0 °F 100% 29.98 in - WSW 4.6 mph - N/A   Clear
10:30 PM 41.0 °F 39.0 °F 39.2 °F 93% 29.98 in - WSW 3.5 mph - N/A   Clear
11:00 PM 33 °F - 30 °F 86% 30.00 in 6 mi West 2.2 mph - -   Clear
11:00 PM 39.2 °F - 39.2 °F 100% 29.98 in - WSW 2.3 mph - N/A   Clear
11:30 PM 39.2 °F - 39.2 °F 100% 29.98 in - West 1.2 mph - N/A   Clear